Regional Weather Roundup
Issued by NWS Lake Charles, LA

Home | Current Version | Previous Version | Text Only | Print | Product List | Glossary On
Versions: 1 2 3 4 5 6 7 8 9 10 11 12 13 14 15 16 17 18 19 20 21 22 23 24 25 26 27 28
000
ASUS44 KLCH 231710
RWRLCH
REGIONAL WEATHER ROUNDUP
NATIONAL WEATHER SERVICE LAKE CHARLES LA
1200 PM CDT WED MAY 23 2018

Note: "fair" indicates few or no clouds below 12,000 feet with no
significant weather and/or obstructions to visibility.


ACROSS SOUTHEAST TEXAS

CITY           SKY/WX    TMP DP  RH WIND       PRES   REMARKS
BEAUMONT       LGT RAIN  74  64  71 S16       30.07R
BEAUMONT CITY  TSTM      74  68  81 W9        30.08R
ORANGE         FAIR      82  73  74 S3        30.07S
JASPER         FAIR      88  68  52 CALM      30.09S
$$

ACROSS CENTRAL LOUISIANA

CITY           SKY/WX    TMP DP  RH WIND       PRES   REMARKS
LEESVILLE      MOSUNNY   86  65  49 S6        30.08F
FULLERTON      FAIR      87  70  56 VRB5      30.05F
ALEXANDRIA INT FAIR      90  68  48 MISG      30.05F
ESLER FIELD    FAIR      86  70  58 VRB3      30.08F
DERIDDER       FAIR      86  67  51 E3        30.09F
OAKDALE        FAIR      87  69  54 SE5       30.06F
OPELOUSAS      FAIR      86  68  54 NE5       30.07F
$$

ACROSS SOUTHWEST AND SOUTH CENTRAL LOUISIANA

CITY           SKY/WX    TMP DP  RH WIND       PRES   REMARKS
SULPHUR        FAIR      90  69  50 SE10      30.06S
LAKE CHARLES   PTSUNNY   87  71  58 SE7       30.05F
CHENNAULT INT  PTSUNNY   90  72  55 E8        30.06F
CAMERON PHI    SUNNY     84  72  65 SE8       30.06S
DEQUINCY       FAIR      86  68  54 NE3       30.06F
JENNINGS       PTSUNNY   85  68  56 CALM      30.06S
LAFAYETTE      PTSUNNY   89  68  49 VRB3      30.06F
NEW IBERIA     FAIR      89  67  47 N6        30.06
ABBEVILLE      PTSUNNY   87  69  53 N3        30.06F
PATTERSON      FAIR      86  71  60 NE8       30.07F
SALT POINT       N/A    N/A N/A N/A VRB5      30.04F
$$

SELECTED SITES ACROSS THE REGION

CITY           SKY/WX    TMP DP  RH WIND       PRES   REMARKS
HOUSTON BUSH   LGT RAIN  72  69  90 CALM      30.06R
HOUSTON HOBBY  PTSUNNY   76  74  93 NE7       30.04F
GALVESTON      PTSUNNY   86  76  71 SE15      30.04F
COLLEGE STAT   MOSUNNY   85  69  58 E3        30.05F
CONROE         PTSUNNY   86  70  58 MISG      30.06S
HUNTSVILLE     MOSUNNY   86  69  56 CALM      30.06F
LUFKIN         MOSUNNY   86  69  56 S5        30.07F
SHREVEPORT     FAIR      86  71  60 NE3       30.08S
MONROE         FAIR      86  73  65 CALM      30.09F
NATCHEZ MS     FAIR      85  72  65 N6        30.10F
BATON ROUGE    FAIR      87  68  52 NE5       30.08F
N.O. INTL ARPT FAIR      88  73  61 N9        30.08S
SLIDELL        CLOUDY    87  68  52 CALM      30.07F
$$

MARINE REPORTS

STATION/POSITION TIME  SKY/WX   TEMP    WIND        PRES    VSBY
                                AIR SEA DIR/SP/G
                 (UTC)          (F)     (DEG/KT/KT) (MB)    (MI)
BUOY 30 S HIGH I NOT AVBL
SEA RIM ST PARK  1700            74      20/  4/  5 1018.8S
PORT ARTHUR      1648            73 84  210/  6/ 14 1018.7R
SABINE PASS N    1648            72 87  260/  4/  6 1019.8R
TEXAS POINT      NOT AVBL
CALCASIEU PASS   1648            83 85  120/  9/ 11 1016.9F
LK CHARLES BEACH 1648            87 83              1017.2F
MARSH ISLAND     1600            82                   N/A
FRESH WATER LOCK 1648            85 87  110/  8/ 10 1017.9F
AMERADA PASS     1648            83 80   50/  3/  5 1018.1F
$$




USA.gov is the U.S. government's official web portal to all federal, state and local government web resources and services.